Flag for Germany Weather past 2 weeks in Oldenburg, Lower Saxony, Germany

Now
54 °F

Clear.


Feels Like: 51 °F
Forecast: 49 / 64 °F
Wind: 9 mph from West

Location: Bremen Airport

Current Time: Jul 31, 2015 at 1:24:23 AM

Latest Report: Jul 31, 2015 at 12:50 AM


Visibility: 10 mi

Pressure: 30.04 "Hg

Humidity: 82%

Dew point: 48 °F

Location of OldenburgLocation

Historic Weather in Oldenburg — Graph

°F

Oldenburg temperature yesterday

Maximum temperature yesterday: 64 °F (at 3:20 PM)
Minimum temperature yesterday: 54 °F (at 5:20 AM)
Average temperature yesterday: 58 °F

Past Weeks' High & Low Weather Summary

 TemperatureHumidityPressure
High88 °F (Jul 17, 2:20 PM)100% (Jul 16, 3:20 AM)30.09 "Hg (Jul 16, 3:20 AM)
Low50 °F (Jul 20, 3:50 AM)35% (Jul 17, 4:20 PM)29.42 "Hg (Jul 25, 12:20 PM)
Average63 °F76%29.82 "Hg
* Reported Jul 16 12:20 AM — Jul 31 12:20 AM, Oldenburg, Weather by CustomWeather, © 2015

Note: Actual official high and low records may vary slightly from our data, if they occured in-between our weather recording intervals... More about our weather records

Advertising

Oldenburg weather history for previous 24 hours

 ConditionsComfort  
Time TempWeatherWind HumidityBarometerVisibility
12:20 AM
Fri, Jul 31
54 °FClear.9 mph82%30.01 "Hg10 mi
11:20 PM
Thu, Jul 30
55 °FClear.10 mph77%30.01 "Hg10 mi
10:50 PM55 °FClear.10 mph77%30.01 "Hg10 mi
10:20 PM54 °FPartly sunny.9 mph82%30.01 "HgN/A
9:50 PM55 °FScattered clouds.9 mph77%30.01 "HgN/A
9:20 PM57 °FScattered clouds.12 mph72%29.98 "HgN/A
8:50 PM57 °FScattered clouds.12 mph72%29.98 "HgN/A
8:20 PM59 °FPartly sunny.12 mph68%29.98 "HgN/A
7:50 PM59 °FPartly sunny.15 mph63%29.95 "HgN/A
7:20 PM59 °FPartly sunny.15 mph68%29.95 "HgN/A
6:50 PM61 °FPartly sunny.16 mph63%29.95 "HgN/A
6:20 PM61 °FPartly sunny.20 mph59%29.95 "HgN/A
5:50 PM63 °FPartly sunny.17 mph64%29.92 "HgN/A
5:20 PM61 °FPartly sunny.20 mph63%29.92 "HgN/A
4:50 PM63 °FPartly sunny.18 mph64%29.92 "HgN/A
4:20 PM63 °FScattered clouds.14 mph64%29.92 "HgN/A
3:50 PM57 °FBroken clouds.17 mph77%29.92 "HgN/A
3:20 PM64 °FBroken clouds.18 mph60%29.89 "HgN/A
2:50 PM63 °FScattered clouds.20 mph68%29.89 "HgN/A
2:20 PM61 °FScattered clouds.20 mph63%29.89 "HgN/A
1:50 PM63 °FScattered clouds.21 mph68%29.89 "HgN/A
1:20 PM59 °FSprinkles. Broken clouds.22 mph72%29.89 "HgN/A
12:50 PM57 °FScattered clouds.20 mph82%29.89 "HgN/A
12:20 PM55 °FSprinkles. Partly sunny.23 mph88%29.89 "Hg5 mi
11:50 AM59 °FBroken clouds.14 mph77%29.86 "HgN/A
11:20 AM59 °FBroken clouds.20 mph72%29.86 "HgN/A
10:20 AM57 °FSprinkles. Partly sunny.17 mph77%29.83 "HgN/A
9:50 AM59 °FPartly sunny.23 mph72%29.83 "HgN/A
9:20 AM59 °FScattered clouds.20 mph72%29.83 "HgN/A
8:50 AM59 °FScattered clouds.22 mph72%29.80 "HgN/A
8:20 AM57 °FScattered clouds.20 mph82%29.80 "HgN/A
7:50 AM55 °FScattered clouds.17 mph82%29.80 "HgN/A
7:20 AM55 °FScattered clouds.18 mph88%29.77 "HgN/A
6:50 AM55 °FScattered clouds.16 mph88%29.77 "HgN/A
6:20 AM55 °FCool.17 mph88%29.77 "HgN/A
5:50 AM54 °FPartly cloudy.16 mph94%29.77 "HgN/A
5:20 AM54 °FPartly cloudy.16 mph94%29.77 "Hg5 mi
4:50 AM55 °FPartly cloudy.20 mph88%29.77 "HgN/A
4:20 AM55 °FPartly cloudy.18 mph88%29.74 "HgN/A
3:50 AM55 °FPassing clouds.20 mph88%29.74 "HgN/A
3:20 AM55 °FPassing clouds.18 mph88%29.74 "HgN/A
2:50 AM55 °FPassing clouds.20 mph88%29.74 "HgN/A
2:20 AM55 °FPartly cloudy.18 mph88%29.74 "HgN/A
1:50 AM55 °FPartly cloudy.20 mph88%29.74 "HgN/A
1:20 AM55 °FPassing clouds.20 mph88%29.74 "HgN/A
Weather by CustomWeather, © 2015

See weather overviewHow to use our weather pages